Ardmore, OK

6:23 PM CDT on April 24, 2017 (GMT -0500)
Ardmore Municipal

Weather History for KADM - August, 2013

Change the Weather History Date:

Monday, August 5, 2013

  Actual Average Record
Temperature  
Mean Temperature 84 °F -  
Max Temperature 105 °F 93 °F 109 °F (2011)
Min Temperature 71 °F 71 °F 63 °F (2014)
Cooling Degree Days 20    
Growing Degree Days 34 (Base 50)    
Moisture  
Dew Point 67 °F    
Average Humidity 70    
Maximum Humidity 82    
Minimum Humidity 35    
Precipitation  
Precipitation 0.00 in - - ()
Sea Level Pressure  
Sea Level Pressure 29.95 in    
Wind  
Wind Speed 2 mph (SE)    
Max Wind Speed 12 mph    
Max Gust Speed 20 mph    
Visibility 10 miles    
Events      
Averages and records for this station are not official NWS values.
T = Trace of Precipitation, MM = Missing Value Source: NWS Daily Summary

Daily Weather History Graph

Daily Weather History Graph

Search for Another Location

Airport or City:

Trip Planner

Search our weather history database for the weather conditions in past years. The results will help you decide how hot, cold, wet, or windy it might be!

Date:

Astronomy

Aug. 05, 2013 Rise Set
Actual Time 6:42 AM CDT 8:25 PM CDT
Civil Twilight 6:14 AM CDT 8:52 PM CDT
Nautical Twilight 5:42 AM CDT 9:25 PM CDT
Astronomical Twilight 5:07 AM CDT 9:59 PM CDT
Moon 5:37 AM CDT (8/5) 7:28 PM CDT (8/5)
Length of Visible Light 14h 37m
Length of Day
13h 43m
Waning Crescent, 1% of the Moon is Illuminated
Aug 5
Waning Crescent
Aug 6
New
Aug 14
First Quarter
Aug 20
Full
Aug 28
Last Quarter

Hourly Weather History & Observations

Time (CDT) Temp. Heat Index Dew Point Humidity Pressure Visibility Wind Dir Wind Speed Gust Speed Precip Events Conditions
12:15 AM 78.8 °F - 67.5 °F 68% 29.97 in 10.0 mi East 3.5 mph - N/A   Clear
12:35 AM 77.9 °F - 66.7 °F 68% 29.97 in 10.0 mi Calm Calm - N/A   Clear
12:55 AM 77.4 °F - 68.0 °F 73% 29.97 in 10.0 mi ESE 3.5 mph - N/A   Clear
1:15 AM 77.0 °F - 67.3 °F 72% 29.97 in 10.0 mi Calm Calm - N/A   Clear
1:35 AM 76.6 °F - 67.5 °F 73% 29.97 in 10.0 mi Calm Calm - N/A   Clear
1:55 AM 75.9 °F - 65.8 °F 71% 29.97 in 10.0 mi East 3.5 mph - N/A   Clear
2:15 AM 75.2 °F - 66.4 °F 74% 29.96 in 10.0 mi ESE 4.6 mph - N/A   Clear
2:35 AM 75.4 °F - 68.0 °F 78% 29.96 in 10.0 mi ESE 4.6 mph - N/A   Clear
2:55 AM 75.6 °F - 67.1 °F 75% 29.95 in 10.0 mi Calm Calm - N/A   Clear
3:15 AM 74.7 °F - 66.6 °F 76% 29.96 in 10.0 mi Calm Calm - N/A   Clear
3:35 AM 74.3 °F - 65.8 °F 75% 29.96 in 10.0 mi Calm Calm - N/A   Clear
3:55 AM 74.3 °F - 67.1 °F 78% 29.96 in 10.0 mi ESE 4.6 mph - N/A   Clear
4:15 AM 74.3 °F - 66.6 °F 77% 29.96 in 10.0 mi Calm Calm - N/A   Clear
4:35 AM 74.1 °F - 66.2 °F 76% 29.96 in 10.0 mi Calm Calm - N/A   Clear
4:55 AM 73.4 °F - 65.3 °F 76% 29.96 in 10.0 mi Calm Calm - N/A   Clear
5:15 AM 73.0 °F - 65.1 °F 76% 29.96 in 10.0 mi Calm Calm - N/A   Clear
5:35 AM 72.7 °F - 65.3 °F 78% 29.96 in 10.0 mi Calm Calm - N/A   Clear
5:55 AM 72.5 °F - 64.2 °F 75% 29.96 in 10.0 mi SE 3.5 mph - N/A   Clear
6:15 AM 72.3 °F - 65.7 °F 79% 29.96 in 10.0 mi Calm Calm - N/A   Clear
6:35 AM 71.6 °F - 65.8 °F 82% 29.97 in 10.0 mi Calm Calm - N/A   Clear
7:55 AM 78.8 °F - 69.8 °F 74% 29.97 in 10.0 mi Calm Calm - N/A   Clear
8:55 AM 84.2 °F 88.4 °F 69.8 °F 62% 29.98 in 10.0 mi Calm Calm - N/A   Clear
9:55 AM 89.6 °F 93.4 °F 68.0 °F 49% 29.97 in 10.0 mi SW 11.5 mph 17.3 mph N/A   Clear
11:55 AM 96.8 °F 101.8 °F 68.0 °F 39% 29.96 in 10.0 mi SW 8.1 mph - N/A   Clear
12:55 PM 98.6 °F 102.8 °F 66.2 °F 35% 29.94 in 10.0 mi SSW 11.5 mph 19.6 mph N/A   Clear
5:55 PM 98.6 °F 107.7 °F 71.6 °F 42% 29.84 in 10.0 mi South 3.5 mph - N/A   Clear
11:35 PM 78.3 °F - 70.7 °F 77% 29.89 in 10.0 mi East 3.5 mph - N/A   Clear
11:55 PM 79.7 °F - 70.0 °F 72% 29.88 in 10.0 mi East 3.5 mph - N/A   Clear